SXS2403 KOKC-KATL

Flight info

Callsign SXS2403
Flight time N/A
Altitude 39000
Route FUNNL3 PHARA FSM MEMFS HUTCC KNSAW RUSSA GLAVN2
Aircraft B738/M-SDE2E3FGHIRWXY/LB1

Departure

Time 2026-04-28 22:53
Airport OKC Will Rogers World Airport (KOKC)

Arrival

Time N/A
Airport Hartsfield Jackson Atlanta International Airport (KATL)
Time Latitude Longitude Altitude Speed Heading
2026-04-28 22:06 35.39455 -97.59512 1294 ft 0 kts 345°
2026-04-28 22:40 35.39452 -97.59512 1294 ft 2 kts 351°
2026-04-28 22:41 35.39443 -97.59511 1294 ft 2 kts 351°
2026-04-28 22:41 35.39429 -97.59504 1294 ft 2 kts 331°
2026-04-28 22:41 35.39416 -97.59495 1293 ft 2 kts 322°
2026-04-28 22:41 35.39405 -97.59483 1294 ft 2 kts 313°
2026-04-28 22:42 35.39396 -97.59469 1294 ft 2 kts 303°
2026-04-28 22:42 35.39389 -97.59453 1294 ft 2 kts 292°
2026-04-28 22:42 35.39384 -97.59436 1294 ft 2 kts 283°
2026-04-28 22:42 35.39382 -97.59418 1294 ft 2 kts 273°
2026-04-28 22:43 35.39382 -97.59409 1294 ft 1 kts 268°
2026-04-28 22:43 35.39382 -97.59406 1294 ft 0 kts 269°
2026-04-28 22:46 35.39381 -97.59415 1294 ft 4 kts 269°
2026-04-28 22:46 35.39381 -97.59491 1294 ft 13 kts 270°
2026-04-28 22:46 35.39384 -97.59645 1294 ft 22 kts 277°
2026-04-28 22:46 35.39364 -97.59827 1294 ft 26 kts 185°
2026-04-28 22:47 35.39217 -97.59911 1290 ft 25 kts 257°
2026-04-28 22:47 35.39215 -97.60133 1287 ft 26 kts 268°
2026-04-28 22:47 35.39188 -97.60354 1284 ft 26 kts 206°
2026-04-28 22:47 35.39002 -97.60355 1280 ft 27 kts 176°
2026-04-28 22:48 35.38808 -97.60340 1277 ft 28 kts 176°
2026-04-28 22:48 35.38603 -97.60332 1273 ft 30 kts 179°
2026-04-28 22:48 35.38389 -97.60329 1269 ft 31 kts 180°
2026-04-28 22:48 35.38168 -97.60330 1265 ft 32 kts 180°
2026-04-28 22:49 35.37977 -97.60332 1261 ft 24 kts 196°
2026-04-28 22:49 35.37933 -97.60361 1260 ft 0 kts 227°
2026-04-28 22:50 35.37918 -97.60398 1260 ft 11 kts 259°
2026-04-28 22:50 35.37926 -97.60545 1261 ft 23 kts 305°
2026-04-28 22:50 35.37977 -97.60571 1262 ft 0 kts 359°
2026-04-28 22:52 35.37993 -97.60571 1263 ft 21 kts 359°
2026-04-28 22:52 35.38461 -97.60559 1271 ft 109 kts
2026-04-28 22:52 35.39471 -97.60571 1318 ft 175 kts
2026-04-28 22:53 35.40770 -97.60577 1993 ft 196 kts 360°
2026-04-28 22:53 35.42032 -97.60283 3242 ft 191 kts 25°
2026-04-28 22:53 35.42901 -97.59071 4223 ft 206 kts 58°
2026-04-28 22:53 35.43220 -97.57308 5046 ft 227 kts 87°
2026-04-28 22:54 35.42899 -97.55353 5744 ft 246 kts 109°
2026-04-28 22:54 35.42052 -97.53481 6328 ft 263 kts 130°
2026-04-28 22:54 35.40814 -97.51772 7012 ft 277 kts 131°
2026-04-28 22:54 35.40021 -97.49560 7811 ft 293 kts 100°
2026-04-28 22:55 35.40007 -97.47084 8794 ft 298 kts 85°
2026-04-28 22:55 35.40211 -97.44553 9638 ft 307 kts 85°
2026-04-28 22:55 35.40363 -97.41852 10288 ft 325 kts 88°
2026-04-28 22:55 35.40409 -97.39024 10914 ft 342 kts 91°
2026-04-28 22:56 35.40388 -97.36071 11676 ft 354 kts 92°
2026-04-28 22:56 35.40340 -97.33043 12533 ft 361 kts 93°
2026-04-28 22:56 35.40287 -97.29939 13422 ft 367 kts 94°
2026-04-28 22:56 35.40235 -97.26801 14341 ft 373 kts 94°
2026-04-28 22:57 35.40186 -97.23644 15242 ft 380 kts 93°
2026-04-28 22:57 35.40140 -97.20404 16143 ft 385 kts 92°
2026-04-28 22:57 35.40095 -97.17088 17004 ft 392 kts 92°
2026-04-28 22:57 35.40051 -97.13752 17874 ft 398 kts 93°
2026-04-28 22:58 35.40005 -97.10364 18661 ft 405 kts 92°
2026-04-28 22:58 35.39958 -97.06898 19470 ft 410 kts 92°
2026-04-28 22:58 35.39912 -97.03388 20180 ft 416 kts 92°
2026-04-28 22:58 35.39865 -96.99854 20951 ft 422 kts 92°
2026-04-28 22:59 35.39815 -96.96230 21667 ft 428 kts 92°
2026-04-28 22:59 35.39767 -96.92580 22336 ft 434 kts 91°
2026-04-28 22:59 35.39843 -96.88858 23083 ft 438 kts 87°
2026-04-28 22:59 35.40074 -96.85165 23779 ft 443 kts 84°
2026-04-28 23:00 35.40387 -96.81425 24467 ft 447 kts 83°
2026-04-28 23:00 35.40736 -96.77609 25133 ft 451 kts 83°
2026-04-28 23:00 35.41087 -96.73790 25794 ft 455 kts 83°
2026-04-28 23:00 35.41435 -96.69916 26429 ft 459 kts 83°
2026-04-28 23:01 35.41775 -96.66042 27026 ft 463 kts 83°
2026-04-28 23:01 35.42110 -96.62124 27649 ft 466 kts 83°
2026-04-28 23:01 35.42440 -96.58162 28220 ft 471 kts 83°
2026-04-28 23:01 35.42766 -96.54188 28776 ft 475 kts 83°
2026-04-28 23:02 35.43094 -96.50142 29331 ft 478 kts 83°
2026-04-28 23:02 35.43419 -96.46091 29904 ft 480 kts 84°
2026-04-28 23:02 35.43743 -96.42014 30340 ft 486 kts 83°
2026-04-28 23:02 35.44070 -96.37871 30837 ft 490 kts 83°
2026-04-28 23:03 35.44395 -96.33712 31256 ft 495 kts 84°
2026-04-28 23:03 35.44725 -96.29491 31712 ft 499 kts 84°
2026-04-28 23:03 35.45055 -96.25244 32125 ft 503 kts 84°
2026-04-28 23:03 35.45389 -96.20923 32550 ft 507 kts 84°
2026-04-28 23:04 35.45721 -96.16607 32963 ft 511 kts 84°
2026-04-28 23:04 35.46351 -96.07884 33843 ft 517 kts 85°
2026-04-28 23:04 35.46463 -96.03475 34250 ft 521 kts 89°
2026-04-28 23:05 35.46401 -95.99004 34700 ft 523 kts 92°
2026-04-28 23:05 35.46241 -95.94548 35068 ft 527 kts 94°
2026-04-28 23:05 35.46038 -95.90044 35457 ft 531 kts 93°
2026-04-28 23:05 35.45822 -95.85541 36079 ft 528 kts 94°
2026-04-28 23:06 35.45608 -95.81052 36734 ft 525 kts 94°
2026-04-28 23:06 35.45406 -95.76646 37257 ft 524 kts 94°
2026-04-28 23:06 35.45208 -95.72159 37573 ft 528 kts 94°
2026-04-28 23:06 35.45016 -95.67635 37877 ft 531 kts 93°
2026-04-28 23:07 35.44832 -95.63174 38265 ft 533 kts 94°
2026-04-28 23:07 35.44650 -95.58644 38795 ft 530 kts 93°
2026-04-28 23:07 35.44469 -95.54092 38919 ft 533 kts 93°
2026-04-28 23:07 35.44292 -95.49616 38929 ft 529 kts 93°
2026-04-28 23:08 35.43940 -95.40646 38923 ft 526 kts 94°
2026-04-28 23:08 35.43580 -95.31750 38919 ft 526 kts 94°
2026-04-28 23:09 35.43211 -95.22781 38914 ft 526 kts 94°
2026-04-28 23:09 35.42838 -95.13916 38904 ft 524 kts 94°
2026-04-28 23:10 35.42458 -95.05019 38908 ft 523 kts 94°
2026-04-28 23:10 35.42077 -94.96176 38906 ft 522 kts 95°
2026-04-28 23:11 35.41687 -94.87312 38898 ft 521 kts 94°
2026-04-28 23:11 35.41285 -94.78406 38899 ft 524 kts 94°
2026-04-28 23:12 35.40873 -94.69558 38889 ft 523 kts 95°
2026-04-28 23:12 35.40456 -94.60698 38884 ft 522 kts 94°
2026-04-28 23:13 35.40036 -94.51817 38879 ft 523 kts 95°
2026-04-28 23:13 35.39621 -94.42979 38875 ft 521 kts 95°
2026-04-28 23:14 35.39185 -94.34050 38871 ft 525 kts 95°
2026-04-28 23:14 35.38730 -94.25051 38873 ft 535 kts 96°
2026-04-28 23:15 35.38155 -94.16023 38864 ft 533 kts 97°
2026-04-28 23:15 35.37490 -94.06982 38865 ft 533 kts 96°
2026-04-28 23:16 35.36816 -93.97965 38865 ft 533 kts 97°
2026-04-28 23:16 35.36150 -93.88991 38864 ft 531 kts 97°
2026-04-28 23:17 35.35489 -93.79990 38867 ft 531 kts 97°
2026-04-28 23:17 35.34832 -93.71014 38865 ft 531 kts 97°
2026-04-28 23:18 35.34167 -93.62045 38849 ft 530 kts 96°
2026-04-28 23:18 35.33496 -93.53085 38862 ft 530 kts 96°
2026-04-28 23:19 35.32824 -93.44185 38848 ft 527 kts 96°
2026-04-28 23:19 35.32138 -93.35218 38845 ft 528 kts 97°
2026-04-28 23:20 35.31453 -93.26332 38852 ft 529 kts 97°
2026-04-28 23:20 35.30753 -93.17383 38852 ft 526 kts 97°
2026-04-28 23:21 35.30061 -93.08548 38860 ft 525 kts 96°
2026-04-28 23:21 35.29365 -92.99697 38867 ft 524 kts 97°
2026-04-28 23:22 35.28661 -92.90868 38863 ft 523 kts 97°
2026-04-28 23:22 35.27943 -92.81994 38857 ft 524 kts 97°
2026-04-28 23:23 35.27229 -92.73188 38846 ft 524 kts 96°
2026-04-28 23:23 35.26507 -92.64393 38846 ft 520 kts 96°
2026-04-28 23:24 35.25773 -92.55582 38866 ft 524 kts 96°
2026-04-28 23:24 35.25028 -92.46758 38852 ft 520 kts 96°
2026-04-28 23:25 35.24292 -92.38081 38859 ft 521 kts 96°
2026-04-28 23:25 35.23545 -92.29279 38856 ft 520 kts 96°
2026-04-28 23:26 35.22793 -92.20512 38841 ft 518 kts 96°
2026-04-28 23:26 35.22037 -92.11759 38850 ft 521 kts 96°
2026-04-28 23:27 35.21270 -92.02985 38847 ft 518 kts 96°
2026-04-28 23:27 35.20501 -91.94311 38843 ft 518 kts 96°
2026-04-28 23:28 35.19719 -91.85608 38879 ft 515 kts 96°
2026-04-28 23:28 35.18934 -91.76909 38857 ft 512 kts 96°
2026-04-28 23:29 35.18151 -91.68306 38853 ft 507 kts 96°
2026-04-28 23:29 35.17374 -91.59744 38862 ft 510 kts 95°
2026-04-28 23:30 35.16606 -91.51355 38849 ft 501 kts 96°
2026-04-28 23:30 35.15829 -91.42914 38842 ft 500 kts 95°
2026-04-28 23:31 35.15059 -91.34501 38851 ft 498 kts 96°
2026-04-28 23:31 35.14316 -91.26156 38855 ft 492 kts 96°
2026-04-28 23:32 35.13540 -91.17927 38858 ft 492 kts 95°
2026-04-28 23:32 35.12743 -91.09782 38865 ft 486 kts 96°
2026-04-28 23:33 35.11943 -91.01623 38871 ft 486 kts 96°
2026-04-28 23:33 35.11152 -90.93517 38881 ft 482 kts 95°